カタログに戻る

SATCOM 3 DEB

LostHEO
NORAD 49960·DEBRIS·🇺🇸 United States

打ち上げ Dec 7, 1979 から Cape Canaveral Space Force Station

Loading…

次のパス (今後24時間)

TLE

古いSource: Space-Track

元期: Dec 14, 2023, 02:31 UTC

1 49960U 79101AE  23348.10503287 -.00000043  00000-0  00000+0 0  9999
2 49960   8.6072 297.6836 5425695  50.0430 346.3214  1.86916210 59339

AllMySatでSATCOM 3 DEBをリアルタイム追跡

Download on the App Store